| time (UTC) | temp F | wind direction | speed MPH | gust MPH | rain 1hr in | rain 24hr in | rain mn in | humidity % | barometer mb |
| 20260503203304 | 61 | 288 | 3.0 | 15.0 | 0.00 | 0.00 | 0.00 | 37 | 1015.0 |
| 20260503195805 | 62 | 246 | 7.0 | 16.0 | 0.00 | 0.00 | 0.00 | 35 | 1015.3 |
| 20260503195305 | 61 | 322 | 5.0 | 20.0 | 0.00 | 0.00 | 0.00 | 37 | 1015.4 |
| 20260503194806 | 61 | 315 | 9.0 | 20.0 | 0.00 | 0.00 | 0.00 | 37 | 1015.5 |
| 20260503194305 | 61 | 277 | 4.0 | 16.0 | 0.00 | 0.00 | 0.00 | 36 | 1015.5 |
| 20260503193805 | 60 | 270 | 5.0 | 13.0 | 0.00 | 0.00 | 0.00 | 37 | 1015.6 |
| 20260503190805 | 60 | 248 | 6.0 | 16.0 | 0.00 | 0.00 | 0.00 | 40 | 1015.8 |
| 20260503190305 | 59 | 262 | 9.0 | 16.0 | 0.00 | 0.00 | 0.00 | 37 | 1015.9 |
| 20260503185804 | 60 | 285 | 7.0 | 12.0 | 0.00 | 0.00 | 0.00 | 39 | 1016.0 |
| 20260503185305 | 60 | 281 | 4.0 | 17.0 | 0.00 | 0.00 | 0.00 | 41 | 1016.0 |
| 20260503184806 | 60 | 263 | 6.0 | 17.0 | 0.00 | 0.00 | 0.00 | 38 | 1016.1 |
| 20260503184305 | 59 | 183 | 6.0 | 17.0 | 0.00 | 0.00 | 0.00 | 39 | 1016.1 |
| 20260503183806 | 59 | 270 | 6.0 | 12.0 | 0.00 | 0.00 | 0.00 | 38 | 1016.2 |
| 20260503182805 | 59 | 342 | 5.0 | 17.0 | 0.00 | 0.00 | 0.00 | 38 | 1016.4 |
| 20260503182305 | 59 | 329 | 6.0 | 13.0 | 0.00 | 0.00 | 0.00 | 41 | 1016.4 |
| 20260503180806 | 59 | 263 | 5.0 | 16.0 | 0.00 | 0.00 | 0.00 | 39 | 1016.4 |
| 20260503180305 | 58 | 263 | 9.0 | 20.0 | 0.00 | 0.00 | 0.00 | 38 | 1016.4 |
| 20260503175805 | 59 | 263 | 9.0 | 20.0 | 0.00 | 0.00 | 0.00 | 39 | 1016.5 |
| 20260503174804 | 57 | 252 | 5.0 | 18.0 | 0.00 | 0.00 | 0.00 | 40 | 1016.6 |
| 20260503174305 | 58 | 314 | 5.0 | 18.0 | 0.00 | 0.00 | 0.00 | 38 | 1016.7 |
| 20260503173804 | 59 | 291 | 9.0 | 18.0 | 0.00 | 0.00 | 0.00 | 38 | 1016.6 |
| 20260503173305 | 58 | 286 | 3.0 | 15.0 | 0.00 | 0.00 | 0.00 | 40 | 1016.4 |
| 20260503172805 | 58 | 309 | 6.0 | 20.0 | 0.00 | 0.00 | 0.00 | 41 | 1016.4 |
| 20260503171305 | 57 | 237 | 7.0 | 15.0 | 0.00 | 0.00 | 0.00 | 40 | 1016.7 |
| 20260503170304 | 58 | 286 | 4.0 | 13.0 | 0.00 | 0.00 | 0.00 | 39 | 1016.6 |
| 20260503140306 | 50 | 303 | 4.0 | 9.0 | 0.00 | 0.00 | 0.00 | 53 | 1017.6 |
| 20260503131305 | 47 | 299 | 3.0 | 15.0 | 0.00 | 0.00 | 0.00 | 58 | 1017.4 |
| 20260503130305 | 47 | 321 | 5.0 | 16.0 | 0.00 | 0.00 | 0.00 | 59 | 1017.3 |
| 20260503110805 | 42 | 267 | 6.0 | 14.0 | 0.00 | 0.00 | 0.00 | 71 | 1016.4 |
| 20260503110305 | 41 | 299 | 4.0 | 12.0 | 0.00 | 0.00 | 0.00 | 71 | 1016.3 |
| 20260503090304 | 41 | 268 | 2.0 | 12.0 | 0.00 | 0.00 | 0.00 | 71 | 1014.7 |
| 20260503080806 | 42 | 300 | 3.0 | 8.0 | 0.00 | 0.00 | 0.00 | 71 | 1014.4 |
| 20260503080305 | 42 | 277 | 3.0 | 10.0 | 0.00 | 0.00 | 0.00 | 71 | 1014.4 |
| 20260503072804 | 42 | 295 | 2.0 | 8.0 | 0.00 | 0.00 | 0.00 | 71 | 1014.0 |
| 20260503072305 | 43 | 291 | 3.0 | 9.0 | 0.00 | 0.00 | 0.00 | 71 | 1014.0 |
| 20260503071805 | 43 | 272 | 3.0 | 9.0 | 0.00 | 0.00 | 0.00 | 70 | 1014.0 |
| 20260503071304 | 43 | 310 | 3.0 | 8.0 | 0.00 | 0.00 | 0.00 | 70 | 1014.0 |
| 20260503051805 | 44 | 291 | 1.0 | 6.0 | 0.00 | 0.00 | 0.00 | 70 | 1014.0 |
| 20260503050304 | 45 | 240 | 1.0 | 6.0 | 0.00 | 0.00 | 0.00 | 67 | 1014.1 |
| 20260503045804 | 45 | 267 | 2.0 | 6.0 | 0.00 | 0.00 | 0.00 | 67 | 1014.1 |
| 20260503043804 | 46 | 270 | 3.0 | 10.0 | 0.00 | 0.00 | 0.00 | 65 | 1014.4 |
| 20260503043305 | 46 | 293 | 5.0 | 10.0 | 0.00 | 0.00 | 0.00 | 65 | 1014.3 |
| 20260503035804 | 47 | 289 | 2.0 | 9.0 | 0.00 | 0.00 | 0.00 | 64 | 1014.5 |
| 20260503034304 | 48 | 277 | 4.0 | 12.0 | 0.00 | 0.00 | 0.00 | 63 | 1014.7 |
| 20260503033805 | 48 | 340 | 5.0 | 12.0 | 0.00 | 0.00 | 0.00 | 63 | 1014.6 |
| 20260503032305 | 48 | 329 | 4.0 | 13.0 | 0.00 | 0.00 | 0.00 | 64 | 1014.7 |
| 20260503031804 | 48 | 291 | 3.0 | 8.0 | 0.00 | 0.00 | 0.00 | 64 | 1014.7 |
| 20260503030805 | 49 | 283 | 1.0 | 8.0 | 0.00 | 0.00 | 0.00 | 63 | 1014.7 |
| 20260503025305 | 49 | 332 | 4.0 | 8.0 | 0.00 | 0.00 | 0.00 | 62 | 1014.7 |
| 20260503023804 | 49 | 305 | 2.0 | 5.0 | 0.00 | 0.00 | 0.00 | 61 | 1014.8 |
| 20260503023304 | 49 | 348 | 3.0 | 5.0 | 0.00 | 0.00 | 0.00 | 61 | 1014.8 |
| 20260503022804 | 49 | 276 | 1.0 | 12.0 | 0.00 | 0.00 | 0.00 | 61 | 1014.8 |
| 20260503022305 | 49 | 309 | 2.0 | 12.0 | 0.00 | 0.00 | 0.00 | 61 | 1014.7 |
| 20260503021304 | 50 | 14 | 1.0 | 3.0 | 0.00 | 0.00 | 0.00 | 61 | 1014.7 |
| 20260503020806 | 50 | 283 | 1.0 | 3.0 | 0.00 | 0.00 | 0.00 | 61 | 1014.6 |
| 20260503020304 | 50 | 284 | 2.0 | 5.0 | 0.00 | 0.00 | 0.00 | 59 | 1014.6 |
| 20260503014805 | 50 | 260 | 4.0 | 10.0 | 0.00 | 0.00 | 0.00 | 58 | 1014.5 |
| 20260503014304 | 50 | 300 | 3.0 | 10.0 | 0.00 | 0.00 | 0.00 | 59 | 1014.5 |
| 20260503012305 | 50 | 333 | 1.0 | 3.0 | 0.00 | 0.00 | 0.00 | 62 | 1014.4 |
| 20260503011805 | 50 | 277 | 1.0 | 3.0 | 0.00 | 0.00 | 0.00 | 62 | 1014.2 |
| 20260503010804 | 50 | 306 | 0.0 | 3.0 | 0.00 | 0.00 | 0.00 | 63 | 1014.0 |
| 20260503004304 | 52 | 316 | 1.0 | 3.0 | 0.00 | 0.00 | 0.00 | 56 | 1013.8 |
| 20260503003804 | 52 | 257 | 1.0 | 3.0 | 0.00 | 0.00 | 0.00 | 56 | 1013.7 |
| 20260503003305 | 52 | 248 | 2.0 | 5.0 | 0.00 | 0.00 | 0.00 | 54 | 1013.6 |
| 20260503002804 | 52 | 319 | 1.0 | 5.0 | 0.00 | 0.00 | 0.00 | 54 | 1013.6 |
| 20260503001804 | 53 | 268 | 2.0 | 5.0 | 0.00 | 0.00 | 0.00 | 53 | 1013.5 |
| 20260502235804 | 54 | 273 | 1.0 | 6.0 | 0.00 | 0.00 | 0.00 | 53 | 1013.4 |
| 20260502235305 | 54 | 287 | 2.0 | 3.0 | 0.00 | 0.00 | 0.00 | 52 | 1013.4 |
| 20260502233304 | 54 | 215 | 1.0 | 7.0 | 0.00 | 0.00 | 0.00 | 51 | 1013.3 |
| 20260502232804 | 54 | 311 | 2.0 | 7.0 | 0.00 | 0.00 | 0.00 | 50 | 1013.3 |
| 20260502232305 | 54 | 299 | 1.0 | 7.0 | 0.00 | 0.00 | 0.00 | 50 | 1013.2 |
| 20260502225805 | 55 | 283 | 2.0 | 8.0 | 0.00 | 0.00 | 0.00 | 48 | 1013.1 |
| 20260502224304 | 56 | 336 | 4.0 | 8.0 | 0.00 | 0.00 | 0.00 | 47 | 1013.0 |
| 20260502223805 | 56 | 115 | 0.0 | 3.0 | 0.00 | 0.00 | 0.00 | 50 | 1013.0 |
| 20260502222305 | 56 | 355 | 2.0 | 7.0 | 0.00 | 0.00 | 0.00 | 47 | 1012.9 |
| 20260502221305 | 57 | 304 | 2.0 | 10.0 | 0.00 | 0.00 | 0.00 | 47 | 1013.0 |
| 20260502220804 | 57 | 335 | 3.0 | 10.0 | 0.00 | 0.00 | 0.00 | 46 | 1013.0 |
| 20260502215804 | 57 | 318 | 3.0 | 12.0 | 0.00 | 0.00 | 0.00 | 46 | 1012.9 |
| 20260502215305 | 58 | 327 | 3.0 | 12.0 | 0.00 | 0.00 | 0.00 | 44 | 1012.9 |
| 20260502214804 | 58 | 272 | 2.0 | 9.0 | 0.00 | 0.00 | 0.00 | 45 | 1012.9 |
| 20260502214305 | 58 | 247 | 2.0 | 6.0 | 0.00 | 0.00 | 0.00 | 46 | 1012.9 |
| 20260502213805 | 58 | 151 | 1.0 | 7.0 | 0.00 | 0.00 | 0.00 | 46 | 1012.9 |
| 20260502213304 | 58 | 341 | 2.0 | 10.0 | 0.00 | 0.00 | 0.00 | 44 | 1012.8 |
| 20260502212805 | 58 | 330 | 2.0 | 10.0 | 0.00 | 0.00 | 0.00 | 45 | 1012.7 |
| 20260502212305 | 58 | 239 | 5.0 | 14.0 | 0.00 | 0.00 | 0.00 | 43 | 1012.7 |
| 20260502210804 | 59 | 339 | 4.0 | 12.0 | 0.00 | 0.00 | 0.00 | 45 | 1012.6 |
| 20260502210305 | 59 | 271 | 4.0 | 12.0 | 0.00 | 0.00 | 0.00 | 41 | 1012.5 |
| 20260502205804 | 60 | 293 | 3.0 | 12.0 | 0.00 | 0.00 | 0.00 | 44 | 1012.5 |
| 20260502205305 | 60 | 300 | 6.0 | 12.0 | 0.00 | 0.00 | 0.00 | 42 | 1012.4 |
| 20260502204804 | 60 | 254 | 4.0 | 10.0 | 0.00 | 0.00 | 0.00 | 41 | 1012.4 |
| 20260502204304 | 61 | 296 | 4.0 | 9.0 | 0.00 | 0.00 | 0.00 | 39 | 1012.4 |
| 20260502203806 | 61 | 313 | 3.0 | 10.0 | 0.00 | 0.00 | 0.00 | 42 | 1012.3 |